Gunnison, CO

3:58 PM MDT on April 21, 2018 (GMT -0600)
Gunnison County

Weather History for KGUC - April, 2014

Change the Weather History Date:

Wednesday, April 23, 2014

  Actual Average Record
Temperature  
Mean Temperature 44 °F -  
Max Temperature 55 °F 53 °F 73 °F (2012)
Min Temperature 33 °F 24 °F 17 °F (2002)
Degree Days  
Heating Degree Days 21    
Moisture  
Dew Point 20 °F    
Average Humidity 39    
Maximum Humidity 70    
Minimum Humidity 21    
Precipitation  
Precipitation 0.00 in - - ()
Sea Level Pressure  
Sea Level Pressure 29.90 in    
Wind  
Wind Speed 10 mph (West)    
Max Wind Speed 24 mph    
Max Gust Speed 34 mph    
Visibility 10 miles    
Events      
Averages and records for this station are not official NWS values.
T = Trace of Precipitation, MM = Missing Value Source: NWS Daily Summary

Daily Weather History Graph

Daily Weather History Graph

Search for Another Location

Airport or City:

Astronomy

Apr. 23, 2014 Rise Set
Actual Time 6:20 AM MDT 7:52 PM MDT
Civil Twilight 5:52 AM MDT 8:20 PM MDT
Nautical Twilight 5:19 AM MDT 8:53 PM MDT
Astronomical Twilight 4:43 AM MDT 9:29 PM MDT
Moon 2:49 AM MDT (4/23) 2:07 PM MDT (4/23)
Length of Visible Light 14h 27m
Length of Day
13h 31m
Waning Crescent, 34% of the Moon is Illuminated
Apr 23
Waning Crescent
Apr 29
New
May 6
First Quarter
May 14
Full
May 21
Last Quarter

Hourly Weather History & Observations

Time (MDT) Temp. Windchill Dew Point Humidity Pressure Visibility Wind Dir Wind Speed Gust Speed Precip Events Conditions
12:15 AM 44.6 °F 39.7 °F 30.2 °F 57% 29.88 in 10.0 mi North 9.2 mph - N/A   Partly Cloudy
12:35 AM 44.6 °F 40.2 °F 32.0 °F 61% 29.89 in 10.0 mi NNW 8.1 mph - N/A   Clear
12:55 AM 44.6 °F 43.1 °F 32.0 °F 61% 29.88 in 10.0 mi NW 3.5 mph - N/A   Clear
1:15 AM 44.6 °F - 30.2 °F 57% 29.88 in 10.0 mi Calm Calm - N/A   Clear
1:35 AM 42.8 °F 40.1 °F 30.2 °F 61% 29.88 in 10.0 mi North 4.6 mph - N/A   Clear
1:55 AM 42.8 °F 37.0 °F 30.2 °F 61% 29.87 in 10.0 mi North 10.4 mph - N/A   Clear
2:15 AM 42.8 °F 38.6 °F 30.2 °F 61% 29.86 in 10.0 mi NNE 6.9 mph - N/A   Clear
2:35 AM 42.8 °F 39.3 °F 30.2 °F 61% 29.86 in 10.0 mi NNE 5.8 mph - N/A   Clear
2:55 AM 42.8 °F 38.6 °F 30.2 °F 61% 29.85 in 10.0 mi North 6.9 mph - N/A   Clear
3:15 AM 42.8 °F 39.3 °F 30.2 °F 61% 29.85 in 10.0 mi North 5.8 mph - N/A   Clear
3:35 AM 42.8 °F 40.1 °F 30.2 °F 61% 29.85 in 10.0 mi NNE 4.6 mph - N/A   Clear
3:55 AM 41.0 °F - 30.2 °F 65% 29.85 in 10.0 mi Calm Calm - N/A   Partly Cloudy
4:15 AM 39.2 °F 37.0 °F 30.2 °F 70% 29.85 in 10.0 mi West 3.5 mph - N/A   Clear
4:35 AM 39.2 °F 37.0 °F 28.4 °F 65% 29.85 in 10.0 mi North 3.5 mph - N/A   Partly Cloudy
4:55 AM 39.2 °F 37.0 °F 28.4 °F 65% 29.85 in 10.0 mi North 3.5 mph - N/A   Mostly Cloudy
5:15 AM 39.2 °F - 28.4 °F 65% 29.85 in 10.0 mi Calm Calm - N/A   Scattered Clouds
5:35 AM 37.4 °F - 28.4 °F 70% 29.85 in 10.0 mi Calm Calm - N/A   Clear
5:55 AM 42.8 °F 34.5 °F 28.4 °F 57% 29.85 in 10.0 mi SSW 18.4 mph 32.2 mph N/A   Partly Cloudy
6:15 AM 46.4 °F 41.1 °F 26.6 °F 46% 29.86 in 10.0 mi SW 11.5 mph - N/A   Scattered Clouds
6:35 AM 46.4 °F 41.5 °F 24.8 °F 43% 29.86 in 10.0 mi WSW 10.4 mph 16.1 mph N/A   Partly Cloudy
6:55 AM 46.4 °F 40.7 °F 24.8 °F 43% 29.86 in 10.0 mi WSW 12.7 mph 19.6 mph N/A   Clear
7:15 AM 46.4 °F 42.9 °F 24.8 °F 43% 29.86 in 10.0 mi WSW 6.9 mph - N/A   Clear
7:35 AM 46.4 °F 41.9 °F 26.6 °F 46% 29.86 in 10.0 mi WSW 9.2 mph - N/A   Clear
7:55 AM 48.2 °F - 24.8 °F 40% 29.85 in 10.0 mi SW 9.2 mph - N/A   Clear
8:15 AM 50.0 °F - 24.8 °F 37% 29.85 in 10.0 mi WSW 18.4 mph 25.3 mph N/A   Clear
8:35 AM 51.8 °F - 21.2 °F 30% 29.85 in 10.0 mi West 18.4 mph 24.2 mph N/A   Clear
8:55 AM 51.8 °F - 21.2 °F 30% 29.85 in 10.0 mi SW 17.3 mph 26.5 mph N/A   Clear
9:15 AM 51.8 °F - 17.6 °F 26% 29.85 in 10.0 mi WSW 19.6 mph 29.9 mph N/A   Clear
9:35 AM 51.8 °F - 15.8 °F 24% 29.86 in 10.0 mi West 18.4 mph 34.5 mph N/A   Clear
9:55 AM 51.8 °F - 17.6 °F 26% 29.86 in 10.0 mi West 20.7 mph 27.6 mph N/A   Partly Cloudy
10:15 AM 50.0 °F - 15.8 °F 26% 29.86 in 10.0 mi West 15.0 mph 25.3 mph N/A   Partly Cloudy
10:35 AM 51.8 °F - 17.6 °F 26% 29.86 in 10.0 mi West 17.3 mph 24.2 mph N/A   Partly Cloudy
11:15 AM 53.6 °F - 17.6 °F 24% 29.86 in 10.0 mi West 20.7 mph 29.9 mph N/A   Clear
11:35 AM 53.6 °F - 15.8 °F 22% 29.86 in 10.0 mi West 20.7 mph 31.1 mph N/A   Clear
11:55 AM 53.6 °F - 15.8 °F 22% 29.86 in 10.0 mi WNW 24.2 mph 31.1 mph N/A   Clear
12:15 PM 53.6 °F - 15.8 °F 22% 29.86 in 10.0 mi WSW 16.1 mph 26.5 mph N/A   Clear
12:35 PM 53.6 °F - 15.8 °F 22% 29.86 in 10.0 mi West 16.1 mph 26.5 mph N/A   Clear
12:55 PM 53.6 °F - 15.8 °F 22% 29.86 in 10.0 mi WNW 16.1 mph 24.2 mph N/A   Clear
1:15 PM 55.4 °F - 15.8 °F 21% 29.85 in 10.0 mi WNW 11.5 mph 29.9 mph N/A   Clear
1:35 PM 53.6 °F - 14.0 °F 21% 29.85 in 10.0 mi West 17.3 mph 21.9 mph N/A   Clear
2:15 PM 53.6 °F - 14.0 °F 21% 29.85 in 10.0 mi West 18.4 mph 27.6 mph N/A   Clear
2:35 PM 53.6 °F - 15.8 °F 22% 29.85 in 10.0 mi WSW 19.6 mph 27.6 mph N/A   Clear
2:55 PM 53.6 °F - 15.8 °F 22% 29.86 in 10.0 mi West 19.6 mph 27.6 mph N/A   Clear
3:15 PM 53.6 °F - 15.8 °F 22% 29.86 in 10.0 mi West 21.9 mph 26.5 mph N/A   Partly Cloudy
3:35 PM 51.8 °F - 14.0 °F 22% 29.87 in 10.0 mi WSW 16.1 mph 28.8 mph N/A   Partly Cloudy
3:55 PM 48.2 °F - 14.0 °F 25% 29.89 in 10.0 mi WSW 18.4 mph 27.6 mph N/A   Scattered Clouds
4:15 PM 48.2 °F - 15.8 °F 27% 29.90 in 10.0 mi West 17.3 mph 28.8 mph N/A   Scattered Clouds
4:35 PM 46.4 °F 39.2 °F 17.6 °F 32% 29.92 in 10.0 mi West 18.4 mph 31.1 mph N/A   Scattered Clouds
4:55 PM 46.4 °F 41.1 °F 15.8 °F 29% 29.92 in 10.0 mi West 11.5 mph 23.0 mph N/A   Mostly Cloudy
5:15 PM 46.4 °F 39.8 °F 17.6 °F 32% 29.93 in 10.0 mi WSW 16.1 mph 23.0 mph N/A   Mostly Cloudy
5:35 PM 44.6 °F 37.2 °F 17.6 °F 34% 29.94 in 10.0 mi NW 17.3 mph 23.0 mph N/A   Mostly Cloudy
5:55 PM 46.4 °F 39.8 °F 19.4 °F 34% 29.94 in 10.0 mi West 16.1 mph 25.3 mph N/A   Mostly Cloudy
6:15 PM 44.6 °F 37.8 °F 15.8 °F 31% 29.94 in 10.0 mi SW 15.0 mph 20.7 mph N/A   Scattered Clouds
6:35 PM 44.6 °F 39.2 °F 19.4 °F 37% 29.95 in 10.0 mi SW 10.4 mph - N/A   Partly Cloudy
6:55 PM 44.6 °F 38.8 °F 17.6 °F 34% 29.94 in 10.0 mi WSW 11.5 mph 21.9 mph N/A   Scattered Clouds
7:15 PM 42.8 °F 38.0 °F 17.6 °F 36% 29.95 in 10.0 mi SW 8.1 mph - N/A   Scattered Clouds
7:35 PM 42.8 °F 38.6 °F 19.4 °F 39% 29.96 in 10.0 mi SW 6.9 mph - N/A   Mostly Cloudy
7:55 PM 42.8 °F 38.0 °F 19.4 °F 39% 29.96 in 10.0 mi WSW 8.1 mph - N/A   Scattered Clouds
8:15 PM 41.0 °F 37.1 °F 19.4 °F 42% 29.97 in 10.0 mi West 5.8 mph - N/A   Partly Cloudy
8:35 PM 41.0 °F 32.8 °F 19.4 °F 42% 29.98 in 10.0 mi WNW 16.1 mph - N/A   Clear
8:55 PM 41.0 °F 35.2 °F 12.2 °F 31% 29.98 in 10.0 mi West 9.2 mph - N/A   Clear
9:15 PM 41.0 °F 34.3 °F 12.2 °F 31% 30.00 in 10.0 mi WNW 11.5 mph - N/A   Clear
9:35 PM 39.2 °F 32.5 °F 12.2 °F 33% 30.00 in 10.0 mi WNW 10.4 mph - N/A   Clear
9:55 PM 39.2 °F 33.6 °F 8.6 °F 28% 30.01 in 10.0 mi WNW 8.1 mph - N/A   Clear
10:15 PM 37.4 °F 31.4 °F 6.8 °F 28% 30.02 in 10.0 mi WNW 8.1 mph - N/A   Clear
10:35 PM 37.4 °F 30.3 °F 8.6 °F 30% 30.03 in 10.0 mi WNW 10.4 mph - N/A   Clear
10:55 PM 37.4 °F 29.8 °F 6.8 °F 28% 30.03 in 10.0 mi WNW 11.5 mph - N/A   Clear
11:15 PM 37.4 °F 30.3 °F 5.0 °F 26% 30.04 in 10.0 mi West 10.4 mph - N/A   Clear
11:35 PM 33.8 °F 27.0 °F 3.2 °F 28% 30.04 in 10.0 mi WSW 8.1 mph - N/A   Clear
11:55 PM 33.8 °F 27.0 °F 6.8 °F 32% 30.05 in 10.0 mi West 8.1 mph - N/A   Clear